KD8PH Weather Reports


Display with metric or nautical units.
time (UTC)temp
F
wind
direction
speed
MPH
gust
MPH
rain 1hr
in
rain 24hr
in
rain mn
in
humidity
%
barometer
mb
20260503051546 53 23 1.0 3.0 0.00 0.03 0.00 68 1017.2
20260503050550 54 23 1.0 2.0 0.00 0.03 0.00 67 1017.2
20260503045553 54 0.0 1.0 0.00 0.03 0.03 68 1017.1
20260503044545 54 23 2.0 5.0 0.00 0.03 0.03 65 1017.0
20260503043540 54 23 1.0 3.0 0.00 0.03 0.03 65 1017.0
20260503042542 55 23 2.0 4.0 0.00 0.03 0.03 65 1016.9
20260503041536 55 23 1.0 4.0 0.00 0.03 0.03 66 1016.9
20260503040545 55 23 1.0 4.0 0.00 0.04 0.03 64 1016.9
20260503035535 55 23 1.0 3.0 0.00 0.04 0.03 63 1016.8
20260503034538 56 23 2.0 4.0 0.00 0.04 0.03 62 1016.7
20260503033536 56 0 2.0 5.0 0.00 0.04 0.03 61 1016.5
20260503032541 56 0 1.0 3.0 0.00 0.04 0.03 59 1016.6
20260503031542 56 0 2.0 6.0 0.00 0.04 0.03 57 1016.6
20260503030540 56 0.0 5.0 0.00 0.04 0.03 58 1016.3
20260503025551 56 0.0 0.0 0.00 0.04 0.03 59 1016.2
20260503024537 56 0.0 0.0 0.00 0.04 0.03 61 1016.1
20260503023534 57 0.0 0.0 0.00 0.04 0.03 62 1015.7
20260503022540 58 0.0 0.0 0.00 0.04 0.03 60 1015.5
20260503021550 58 0.0 0.0 0.00 0.04 0.03 55 1015.4
20260503020540 58 0.0 0.0 0.00 0.05 0.03 64 1015.3
20260503015548 58 0.0 0.0 0.00 0.05 0.03 58 1015.2
20260503014558 58 0.0 0.0 0.00 0.05 0.03 58 1015.1
20260503013546 59 0.0 0.0 0.00 0.05 0.03 60 1015.0
20260503012535 59 0.0 0.0 0.00 0.05 0.03 58 1014.7
20260503011539 60 0.0 0.0 0.00 0.05 0.03 56 1014.5
20260503010540 61 0.0 1.0 0.00 0.05 0.03 55 1014.4
20260503005546 61 0.0 1.0 0.00 0.05 0.03 49 1014.3
20260503004541 62 0.0 1.0 0.00 0.05 0.03 49 1014.2
20260503003545 63 0.0 1.0 0.00 0.05 0.03 50 1014.1
20260503002543 63 0.0 2.0 0.00 0.06 0.03 48 1014.0
20260503001539 64 338 1.0 3.0 0.00 0.06 0.03 47 1013.9
20260503000538 64 338 1.0 3.0 0.00 0.06 0.03 46 1013.7
20260502235548 65 338 1.0 3.0 0.00 0.06 0.03 49 1013.6
20260502234534 65 0 1.0 2.0 0.00 0.06 0.03 44 1013.4
20260502233548 65 45 1.0 2.0 0.00 0.06 0.03 44 1013.4
20260502232551 65 0 1.0 2.0 0.00 0.06 0.03 40 1013.5
20260502231545 65 0 1.0 4.0 0.00 0.06 0.03 38 1013.4
20260502230547 66 0 2.0 4.0 0.00 0.07 0.03 38 1013.4
20260502225542 66 338 2.0 5.0 0.00 0.07 0.03 38 1013.3
20260502224545 66 68 1.0 3.0 0.00 0.07 0.03 41 1013.4
20260502223542 66 23 2.0 4.0 0.00 0.07 0.03 36 1013.3
20260502222552 67 338 1.0 4.0 0.00 0.07 0.03 38 1013.5
20260502221538 66 23 3.0 5.0 0.00 0.07 0.03 37 1013.4
20260502220543 67 0 4.0 10.0 0.00 0.07 0.03 36 1013.3
20260502215541 67 23 2.0 4.0 0.00 0.08 0.03 39 1013.3
20260502214534 67 23 4.0 12.0 0.00 0.08 0.03 36 1013.2
20260502213546 66 338 2.0 4.0 0.00 0.08 0.03 36 1013.2
20260502212552 67 45 6.0 11.0 0.00 0.08 0.03 35 1013.1
20260502211535 67 0 3.0 9.0 0.00 0.08 0.03 35 1013.0
20260502210545 67 0 1.0 5.0 0.00 0.08 0.03 36 1013.2
20260502205537 67 68 2.0 8.0 0.00 0.09 0.03 34 1013.2
20260502204537 67 338 3.0 9.0 0.00 0.09 0.03 36 1013.3
20260502203551 66 338 3.0 10.0 0.00 0.09 0.03 35 1013.4
20260502202542 66 338 3.0 6.0 0.00 0.09 0.03 35 1013.5
20260502201539 67 338 5.0 15.0 0.00 0.09 0.03 34 1013.4
20260502200538 67 0 4.0 11.0 0.00 0.10 0.03 35 1013.6
20260502195543 67 45 2.0 8.0 0.00 0.10 0.03 36 1013.6
20260502194535 67 45 4.0 11.0 0.00 0.10 0.03 38 1013.6
20260502193547 66 338 4.0 17.0 0.00 0.10 0.03 37 1013.7
20260502192549 65 45 4.0 10.0 0.00 0.10 0.03 38 1013.7
20260502191544 66 113 3.0 7.0 0.00 0.10 0.03 35 1013.7
20260502190543 66 338 4.0 9.0 0.00 0.11 0.03 39 1013.9
20260502185541 65 0 4.0 12.0 0.00 0.11 0.03 37 1013.9
20260502184549 65 0 3.0 10.0 0.00 0.11 0.03 34 1014.0
20260502183541 65 45 5.0 12.0 0.00 0.11 0.03 37 1014.0
20260502182538 65 45 7.0 20.0 0.00 0.11 0.03 34 1014.1
20260502181544 65 0 3.0 8.0 0.00 0.12 0.03 37 1014.1
20260502180541 64 45 7.0 13.0 0.00 0.12 0.03 39 1014.2
20260502163542 61 68 3.0 6.0 0.00 0.13 0.03 43 1014.8
20260502162534 61 45 4.0 10.0 0.00 0.14 0.03 44 1014.9
20260502161549 60 45 4.0 9.0 0.00 0.14 0.03 49 1014.9
20260502160541 60 0 3.0 7.0 0.00 0.14 0.03 48 1014.9
20260502151536 59 23 3.0 7.0 0.00 0.15 0.03 54 1014.7
20260502150541 59 45 2.0 5.0 0.00 0.15 0.03 52 1014.6
20260502130549 56 0 1.0 3.0 0.01 0.17 0.03 62 1013.9
20260502123537 54 338 1.0 2.0 0.00 0.17 0.02 64 1013.7
20260502122538 54 0 1.0 3.0 0.00 0.17 0.02 64 1013.6
20260502121538 54 0 1.0 2.0 0.00 0.17 0.02 64 1013.6
20260502120534 54 0.0 3.0 0.00 0.17 0.02 64 1013.5
20260502115547 54 338 1.0 2.0 0.00 0.17 0.02 63 1013.3
20260502114545 54 0 1.0 2.0 0.00 0.18 0.02 62 1013.2
20260502113536 53 0 1.0 2.0 0.00 0.18 0.02 64 1013.1
20260502112547 53 45 1.0 2.0 0.00 0.18 0.02 62 1013.0
20260502111534 54 68 1.0 2.0 0.00 0.18 0.02 60 1012.9
20260502110546 54 45 1.0 3.0 0.00 0.18 0.02 59 1013.0
20260502105534 54 45 1.0 3.0 0.00 0.18 0.02 60 1012.9
20260502104554 54 68 1.0 2.0 0.00 0.18 0.02 62 1012.9
20260502103540 54 23 1.0 3.0 0.00 0.19 0.02 60 1013.0
20260502102537 54 0.0 1.0 0.00 0.19 0.02 61 1012.9
20260502101534 54 23 1.0 4.0 0.01 0.19 0.02 59 1012.7
20260502100538 54 338 1.0 3.0 0.01 0.19 0.02 59 1012.7
20260502091534 55 23 2.0 5.0 0.00 0.19 0.01 55 1013.0
20260502090542 55 23 1.0 2.0 0.00 0.19 0.01 56 1012.8
20260502070538 57 68 1.0 4.0 0.01 0.22 0.01 55 1013.2
20260502065550 57 45 2.0 6.0 0.01 0.22 0.01 51 1013.1
20260502064548 57 45 2.0 8.0 0.01 0.22 0.01 50 1013.1
20260502063543 57 45 2.0 4.0 0.01 0.22 0.01 50 1013.1
20260502062547 58 45 3.0 10.0 0.00 0.21 0.00 51 1013.3
20260502061538 58 45 2.0 4.0 0.00 0.22 0.00 52 1013.5
20260502060541 58 0 1.0 3.0 0.00 0.22 0.00 53 1013.4
20260502055550 58 23 2.0 4.0 0.00 0.22 0.00 53 1013.1
20260502054538 58 45 1.0 4.0 0.00 0.22 0.00 54 1013.2
20260502053541 58 23 1.0 3.0 0.00 0.22 0.00 55 1013.1
20260502052539 58 45 1.0 4.0 0.00 0.23 0.00 55 1013.3